[[{"header":{"parameterUnit":"m.s-1","parameterCategory":1,"la1":30.2991,"la2":30.254,"lo1":-89.0895,"lo2":-89.0444,"dy":0.0017,"dx":0.0017,"nx":28,"ny":28,"refTime":"2023-06-19T21:00:00:Z","depth":0,"parameterNumber":2,"parameterNumberName":"U-component_of_WINDS"},"data":[0,0,0,0,0,0,0,0,0,0,0,0,0,0,0,0,0,0,0,0,0,0,0,0,0,0,0,0,0,0,0,0,0,0,0,0,0,0,0,0,0,0,0,0,0,0,0,0,0,0,0,0,0,0,0,0,0,0,3.0805,3.0806,0,3.0876,3.0877,3.0878,3.0865,3.0863,3.0862,3.0861,3.094,3.0943,3.0947,0,0,0,0,0,0,0,0,0,0,0,0,0,3.0665,3.0667,3.0805,3.0806,3.0807,3.0876,3.0877,3.0878,3.0865,3.0863,3.0862,3.086,3.0939,3.0943,3.0947,0,0,0,0,0,0,0,0,0,0,0,0,0,3.073,3.0668,3.0805,3.0809,3.081,3.0876,3.0877,3.0878,3.0865,3.0863,3.0861,3.086,3.0938,3.0943,3.0947,3.1017,0,0,3.0963,3.0965,0,0,0,0,0,0,0,0,3.0726,3.0735,3.0807,3.0809,3.081,3.0859,3.0856,3.0925,3.0866,3.0844,3.0861,3.0859,3.0915,3.0922,3.094,3.102,3.1024,3.0963,3.0966,3.0968,3.097,0,0,0,0,0,0,0,3.0722,3.0732,3.0834,3.0808,3.081,3.0809,3.0816,3.0869,3.089,3.0846,3.0845,3.0853,3.0916,3.0935,3.0941,3.1025,3.0963,3.0967,3.097,3.0972,3.1165,3.1167,0,0,0,0,0,0,3.0715,3.0728,3.0831,3.0836,3.0762,3.0813,3.0821,3.0846,3.0889,3.0894,3.0855,3.0853,3.0927,3.0936,3.0944,3.1027,3.0968,3.0973,3.0976,3.1163,3.1165,3.1168,0,0,0,0,0,0,3.0712,3.0724,3.0828,3.0782,3.0795,3.0817,3.0845,3.0848,3.0867,3.0896,3.09,3.087,3.0926,3.0937,3.0998,3.1029,3.0975,3.0979,3.116,3.1164,3.1167,3.1193,0,0,0,0,0,0,3.0708,3.0723,3.0748,3.0782,3.0797,3.0879,3.0847,3.0851,3.0875,3.0872,3.0912,3.0916,3.0926,3.0991,3.1003,3.1035,3.0983,3.1158,3.1162,3.1166,3.119,3.1197,3.1203,0,0,0,0,0,3.0703,3.0755,3.075,3.0762,3.0829,3.0881,3.089,3.0897,3.0877,3.0904,3.0922,3.0915,3.1024,3.0997,3.1011,3.1045,3.1156,3.1161,3.1165,3.1187,3.1195,3.1203,0,0,0,0,0,0,3.0726,3.0759,3.0754,3.0818,3.0846,3.0879,3.0912,3.0907,3.0944,3.094,3.095,3.0959,3.102,3.1039,3.1008,3.1114,3.1087,3.1095,3.1099,3.1108,3.1114,3.1108,3.0987,0,0,0,0,0,3.0739,3.0776,3.0804,3.0858,3.0872,3.0889,3.0913,3.0916,3.0947,3.0959,3.0982,3.1015,3.1056,3.1083,3.1123,3.1193,3.1201,3.1223,3.123,3.1235,3.1242,3.1279,3.1289,3.1184,3.1183,3.1183,0,0,3.0765,3.0788,3.0811,3.0863,3.0885,3.0926,3.09,3.0944,3.0974,3.0967,3.1024,3.1043,3.1079,3.1144,3.1174,3.1162,3.1273,3.1242,3.1246,3.1249,3.1285,3.1295,3.1304,3.1187,3.1186,3.1186,0,0,3.0833,3.0854,3.09,3.0923,3.0956,3.0967,3.0979,3.1012,3.1022,3.108,3.1075,3.1113,3.1184,3.121,3.1232,3.1309,3.1304,3.1323,3.1358,3.1394,3.1402,3.141,3.1436,3.1446,3.1329,3.1329,3.1329,0,3.0862,3.092,3.0925,3.0969,3.0992,3.0985,3.1033,3.1055,3.1101,3.1118,3.1103,3.1191,3.1216,3.1286,3.1305,3.1324,3.1337,3.1317,3.14,3.1408,3.1415,3.144,3.145,3.1331,3.1331,3.1331,3.133,0,3.0953,3.0994,3.1028,3.1069,3.1096,3.1142,3.1156,3.1183,3.1184,3.1197,3.1256,3.1285,3.133,3.1347,3.135,3.1418,3.1409,3.1398,3.1371,3.1427,3.1451,3.146,3.1334,3.1333,3.1332,3.1332,0,0,3.1037,3.108,3.1092,3.1111,3.1147,3.118,3.1226,3.1267,3.129,3.1323,3.1361,3.1421,3.141,3.1436,3.1441,3.1474,3.1531,3.1458,3.1459,3.1469,3.1607,3.1615,3.1626,3.1528,3.153,3.1532,3.1604,0,3.1107,3.1185,3.1191,3.1263,3.13,3.1294,3.1334,3.1362,3.1376,3.1411,3.1428,3.1469,3.1452,3.1467,3.1499,3.1517,3.1559,3.1513,3.1565,3.1567,3.1555,3.1639,3.1647,3.1713,3.1613,3.1615,3.1616,0,3.1199,3.1231,3.1305,3.1335,3.1352,3.1387,3.1425,3.1459,3.1491,3.1499,3.1526,3.1528,3.1576,3.1548,3.1616,3.1584,3.1606,3.1619,3.1622,3.1626,3.1594,3.1644,3.1735,3.1744,3.1631,3.163,3.1629,0,3.1251,3.1314,3.1365,3.1382,3.1418,3.1443,3.146,3.149,3.1514,3.1549,3.1565,3.1605,3.1627,3.166,3.1672,3.1651,3.1739,3.1712,3.1747,3.1746,3.1765,3.1763,3.1859,3.1781,3.1781,3.1781,3.1781,0,3.1328,3.1373,3.1389,3.1421,3.1471,3.1479,3.153,3.1546,3.1572,3.1608,3.1607,3.1641,3.1656,3.1693,3.1704,3.1757,3.1768,3.1776,3.1778,3.1776,3.1774,3.1789,3.1784,3.1784,3.1783,3.1783,3.1782,0,3.1394,3.1406,3.1462,3.1492,3.1501,3.1537,3.1563,3.1594,3.1608,3.1653,3.1664,3.1686,3.1729,3.1745,3.1799,3.1806,3.1867,3.1867,3.1856,3.1856,3.1889,3.1885,3.1997,3.2012,3.1926,3.1926,3.1927,0,3.1441,3.1475,3.1508,3.1531,3.1548,3.1585,3.1609,3.1619,3.1645,3.1683,3.171,3.1752,3.1786,3.1857,3.1878,3.1919,3.1918,3.1955,3.1925,3.192,3.1917,3.1914,3.1917,3.196,3.1961,3.1961,3.1962,0,3.1524,3.1528,3.1561,3.1597,3.1625,3.1654,3.1683,3.1702,3.1716,3.1745,3.1788,3.1815,3.1868,3.191,3.1952,3.1972,3.1969,3.1971,3.1981,3.1978,3.1969,3.1973,3.1869,3.1969,3.1968,3.1967,3.1967,3.1967,3.1581,3.161,3.1637,3.1675,3.1697,3.1723,3.1753,3.177,3.1805,3.1847,3.1852,3.1898,3.1929,3.1985,3.2006,3.2043,3.2033,3.2048,3.2052,3.2055,3.2056,3.1965,3.2051,3.2051,3.2051,3.2051,3.2051,0,3.1661,3.1678,3.1713,3.1751,3.1781,3.1774,3.1806,3.1831,3.1871,3.1899,3.1932,3.1982,3.2023,3.2047,3.2088,3.2113,3.2113,3.2124,3.2121,3.2126,3.2064,3.205,3.2123,3.2123,3.2123,3.2123,3.2123,3.2123,3.1707,3.1756,3.1763,3.1824,3.1841,3.1884,3.1902,3.1927,3.1949,3.2004,3.2037,3.2052,3.2079,3.2122,3.2159,3.2166,3.218,3.2192,3.2197,3.2138,3.213,3.2123,3.211,3.2195,3.2195,3.2256,3.2256,3.2257]},{"header":{"parameterUnit":"m.s-1","parameterCategory":1,"la1":30.2991,"la2":30.254,"lo1":-89.0895,"lo2":-89.0444,"dy":0.0017,"dx":0.0017,"nx":28,"ny":28,"refTime":"2023-06-19T21:00:00:Z","depth":0,"parameterNumber":3,"parameterNumberName":"V-component_of_WINDS"},"data":[0,0,0,0,0,0,0,0,0,0,0,0,0,0,0,0,0,0,0,0,0,0,0,0,0,0,0,0,0,0,0,0,0,0,0,0,0,0,0,0,0,0,0,0,0,0,0,0,0,0,0,0,0,0,0,0,0,0,5.0261,5.0263,0,5.0469,5.0471,5.0473,5.0515,5.0514,5.0512,5.0511,5.0714,5.0721,5.0727,0,0,0,0,0,0,0,0,0,0,0,0,0,4.989,4.9897,5.0261,5.0264,5.0266,5.0468,5.0471,5.0474,5.0515,5.0514,5.0512,5.051,5.0712,5.072,5.0728,0,0,0,0,0,0,0,0,0,0,0,0,0,5.0069,4.9899,5.026,5.0311,5.0318,5.0468,5.0471,5.0475,5.0516,5.0513,5.0511,5.0509,5.0709,5.0719,5.0729,5.084,0,0,5.0761,5.0765,0,0,0,0,0,0,0,0,5.0059,5.0083,5.0301,5.0308,5.0316,5.0464,5.0415,5.0597,5.0516,5.044,5.0511,5.0508,5.0632,5.0648,5.0692,5.0849,5.0858,5.0762,5.0768,5.0772,5.0775,0,0,0,0,0,0,0,5.0047,5.0074,5.0343,5.0304,5.0313,5.032,5.0343,5.045,5.0546,5.0447,5.0451,5.0475,5.0635,5.0682,5.0697,5.0861,5.0761,5.077,5.0777,5.0781,5.1115,5.1117,0,0,0,0,0,0,5.0027,5.0064,5.0336,5.0349,5.018,5.0329,5.0355,5.0418,5.0546,5.0563,5.0477,5.0476,5.0666,5.0685,5.0705,5.084,5.0772,5.0782,5.0788,5.1112,5.1115,5.1118,0,0,0,0,0,0,5.0019,5.0051,5.0328,5.0208,5.0243,5.0338,5.0409,5.0424,5.0471,5.0568,5.0585,5.0507,5.0665,5.069,5.0806,5.0848,5.0786,5.0796,5.1109,5.1113,5.1117,5.1113,0,0,0,0,0,0,5.0008,5.0048,5.0093,5.0208,5.025,5.0429,5.0412,5.043,5.049,5.0491,5.0601,5.0617,5.0665,5.079,5.0816,5.0861,5.0804,5.1105,5.1111,5.1115,5.1109,5.1116,5.1122,0,0,0,0,0,4.9994,5.0082,5.0095,5.0128,5.0309,5.0431,5.0454,5.051,5.0493,5.0537,5.06,5.0614,5.0839,5.0801,5.0831,5.0879,5.1103,5.1109,5.1115,5.1107,5.1115,5.1122,0,0,0,0,0,0,4.9967,5.0099,5.0114,5.0243,5.0326,5.0438,5.0496,5.0517,5.0604,5.0601,5.0663,5.0688,5.0799,5.0851,5.0807,5.0991,5.097,5.0982,5.0953,5.0962,5.0968,5.0952,5.0812,0,0,0,0,0,4.9977,5.0068,5.0176,5.0279,5.032,5.0401,5.0456,5.0492,5.0579,5.0613,5.0684,5.0765,5.0854,5.0911,5.0998,5.1117,5.114,5.1165,5.1171,5.1176,5.1185,5.1248,5.1259,5.1138,5.1138,5.1138,0,0,4.9996,5.0079,5.0132,5.0276,5.0344,5.0433,5.043,5.0525,5.0591,5.0627,5.074,5.0794,5.0889,5.1006,5.1061,5.1053,5.1223,5.1183,5.1186,5.1193,5.1255,5.1267,5.1277,5.1142,5.1141,5.1141,0,0,5.0076,5.015,5.0243,5.0312,5.0416,5.0469,5.0491,5.06,5.0638,5.0754,5.0781,5.0859,5.1011,5.1077,5.113,5.1233,5.1248,5.1259,5.1291,5.1352,5.1361,5.137,5.1404,5.1415,5.1268,5.1268,5.1268,0,5.0086,5.0226,5.0287,5.0381,5.0441,5.048,5.0572,5.0635,5.0761,5.08,5.079,5.098,5.1047,5.1178,5.1203,5.1246,5.127,5.1246,5.1356,5.1365,5.1374,5.1407,5.1419,5.1269,5.1269,5.1269,5.1269,0,5.0231,5.0327,5.0388,5.0512,5.0579,5.0671,5.0743,5.0803,5.0832,5.0885,5.0999,5.1081,5.1184,5.1218,5.1246,5.1352,5.1343,5.1344,5.1323,5.1385,5.1416,5.143,5.127,5.127,5.1269,5.1269,0,0,5.03,5.0456,5.0477,5.0532,5.065,5.0723,5.0815,5.0919,5.0967,5.1052,5.1129,5.1256,5.1257,5.1317,5.1353,5.1407,5.1479,5.14,5.1403,5.141,5.1597,5.1594,5.1608,5.1491,5.1493,5.1496,5.1588,0,5.0392,5.0562,5.0619,5.0758,5.0844,5.0882,5.0961,5.104,5.1091,5.1169,5.1224,5.1313,5.1308,5.1344,5.14,5.1459,5.1517,5.1453,5.1558,5.1561,5.1532,5.1625,5.1624,5.1707,5.1601,5.1603,5.1605,0,5.0523,5.0613,5.0761,5.0866,5.0904,5.0975,5.1073,5.1149,5.1237,5.127,5.1337,5.1368,5.1462,5.1437,5.1564,5.1519,5.1565,5.16,5.1605,5.1615,5.1585,5.1635,5.1735,5.1747,5.1625,5.1624,5.1622,0,5.0555,5.0712,5.0821,5.0867,5.0993,5.1041,5.1095,5.1181,5.1239,5.1323,5.136,5.1453,5.1504,5.1573,5.1628,5.1605,5.1749,5.1729,5.1775,5.1774,5.1803,5.18,5.1909,5.1836,5.1836,5.1836,5.1835,0,5.0651,5.0739,5.0836,5.0903,5.1002,5.1064,5.1159,5.1214,5.129,5.1365,5.1402,5.1471,5.154,5.1616,5.1659,5.1756,5.1779,5.1806,5.1815,5.1801,5.1797,5.1831,5.1825,5.1839,5.1838,5.1838,5.1837,0,5.0702,5.0772,5.0892,5.1001,5.103,5.1098,5.1189,5.1253,5.1306,5.1399,5.1425,5.1506,5.1598,5.166,5.1777,5.1805,5.191,5.192,5.1881,5.1885,5.1927,5.1921,5.206,5.2079,5.1995,5.1996,5.1997,0,5.0758,5.0827,5.0944,5.0998,5.1053,5.114,5.12,5.1263,5.1322,5.1427,5.1477,5.1572,5.1651,5.1795,5.1862,5.1951,5.1962,5.2004,5.1975,5.1958,5.1959,5.1953,5.1959,5.2008,5.2008,5.2009,5.2009,0,5.0848,5.0879,5.0965,5.1063,5.1134,5.1213,5.1292,5.1333,5.1409,5.1474,5.157,5.1631,5.1751,5.1843,5.1938,5.199,5.2011,5.2018,5.2033,5.2018,5.1992,5.2004,5.189,5.2014,5.2014,5.2013,5.2013,5.2013,5.0902,5.0964,5.1056,5.115,5.1216,5.1289,5.1354,5.1415,5.1498,5.1602,5.1634,5.1732,5.1815,5.1945,5.1998,5.2073,5.2069,5.2091,5.2096,5.21,5.2099,5.1982,5.2091,5.2091,5.2091,5.2091,5.2091,0,5.0992,5.1053,5.1139,5.1249,5.1322,5.134,5.1427,5.1486,5.1573,5.1651,5.1729,5.1837,5.1926,5.2,5.2092,5.2137,5.2149,5.2159,5.2155,5.2166,5.2099,5.2076,5.2148,5.2148,5.2148,5.2148,5.2148,5.2148,5.1047,5.1152,5.1193,5.1331,5.139,5.149,5.1538,5.1604,5.1666,5.1786,5.1862,5.1911,5.1986,5.2083,5.2164,5.2183,5.2214,5.2221,5.2242,5.2177,5.2171,5.2164,5.2143,5.2228,5.2228,5.2302,5.2303,5.2303]}]]